Regional Weather Roundup
Issued by NWS Little Rock, AR

Home | Current Version | Previous Version | Graphics & Text | Print | Product List | Glossary On
Versions: 1 2 3 4 5 6 7 8 9 10 11 12 13 14 15 16 17 18 19 20 21 22 23 24 25 26 27 28 29 30 31 32 33 34 35 36 37 38 39 40 41 42 43 44 45 46 47 48 49 50
000
ASUS44 KLZK 151505
RWRLZK

WEATHER ROUNDUP FOR ARKANSAS
NATIONAL WEATHER SERVICE LITTLE ROCK AR
1000 AM CDT MON SEP 15 2014

NOTE: "FAIR" INDICATES FEW OR NO CLOUDS BELOW 12,000 FEET WITH NO
SIGNIFICANT WEATHER AND/OR OBSTRUCTIONS TO VISIBILITY.

ARZ001-003-010-029-151600-
NORTHWEST ARKANSAS

CITY           SKY/WX    TMP DP  RH WIND       PRES   REMARKS
FAYETTEVILLE   LGT RAIN  66  64  93 S8        30.18R
FORT SMITH     CLOUDY    68  64  87 NE6       30.18S
HARRISON       LGT RAIN  64  64 100 SE7       30.18S
BENTONVILLE    CLOUDY    68  63  83 SW8       30.19R
ROGERS         CLOUDY    68  64  87 SW10      30.19R
SILOAM SPGS    CLOUDY    66  61  82 SW10      30.20R
HIGHFILL       LGT RAIN  67  65  93 SW8       30.18R
SPRINGDALE     CLOUDY    68  66  94 S9        30.20R
$$

ARZ004-005-016-151600-
NORTH CENTRAL ARKANSAS

CITY           SKY/WX    TMP DP  RH WIND       PRES   REMARKS
BATESVILLE     CLOUDY    64  61  88 CALM      30.20S
FLIPPIN        CLOUDY    63  57  82 CALM      30.18S
MTN HOME       CLOUDY    63  61  93 VRB5      30.17F
$$

ARZ040-041-151600-
WEST CENTRAL ARKANSAS

CITY           SKY/WX    TMP DP  RH WIND       PRES   REMARKS
MENA             N/A     68  66  94 CALM        N/A
MOUNT IDA      LGT RAIN  67  63  87 CALM      30.18S
$$

ARZ009-017-025-026-028-151600-
NORTHEAST ARKANSAS

CITY           SKY/WX    TMP DP  RH WIND       PRES   REMARKS
CORNING        LGT RAIN  63  59  88 CALM      30.20F
JONESBORO      LGT RAIN  66  62  87 CALM      30.19S
NEWPORT        LGT RAIN  65  61  87 CALM      30.21S
WALNUT RIDGE   CLOUDY    59  57  94 CALM      30.18F
BLYTHEVILLE    LGT RAIN  66  62  87 CALM      30.20R
NW BLYTHEVILLE CLOUDY    68  63  83 CALM      30.19S
$$

ARZ022-023-033-042-044-151600-
CENTRAL ARKANSAS

CITY           SKY/WX    TMP DP  RH WIND       PRES   REMARKS
LITTLE ROCK    CLOUDY    71  59  65 CALM      30.20S
N LITTLE ROCK  CLOUDY    69  62  79 SE3       30.20S
JACKSONVILLE   CLOUDY    69  60  73 E2        30.19S
SEARCY         CLOUDY    68  60  75 CALM      30.21S
HOT SPRINGS    CLOUDY    70  62  76 CALM      30.19F
RUSSELLVILLE   CLOUDY    68  62  81 CALM      30.19R
CLINTON        FAIR      63  63 100 CALM      30.21S
$$

ARZ036-151600-
EAST ARKANSAS

CITY           SKY/WX    TMP DP  RH WIND       PRES   REMARKS
WEST MEMPHIS   CLOUDY    70  62  76 CALM      30.18R
$$

ARZ050-053-066-070-073-151600-
SOUTHWEST ARKANSAS

CITY           SKY/WX    TMP DP  RH WIND       PRES   REMARKS
ARKADELPHIA    FAIR      71  63  76 NE3       30.19S
CAMDEN         LGT RAIN  72  63  73 CALM      30.18S
TEXARKANA      CLOUDY    70  64  81 E5        30.17F
EL DORADO      PTSUNNY   75  64  68 N5        30.18S
DE QUEEN       CLOUDY    70  63  78 E7        30.15F
$$

ARZ056-057-069-151600-
SOUTHEAST ARKANSAS

CITY           SKY/WX    TMP DP  RH WIND       PRES   REMARKS
PINE BLUFF     CLOUDY    71  62  73 CALM      30.20R
STUTTGART      CLOUDY    68  61  77 N3        30.20S
MONTICELLO     PTSUNNY   73  64  73 CALM      30.18R

$$





USA.gov is the U.S. government's official web portal to all federal, state and local government web resources and services.